Location: Melara
(45.0500°N, 11.1833°E)
Time: 22:02:02
(UTC+00:00)

Cosmos 1455 - Pass Details

Date: 26 May 2022
Orbit: 492 x 514 km, 82.5° (Epoch: 03 July)

Event Time Altitude Azimuth Distance (km) Brightness Sun altitude
Rises 02:23:18 0° 332° (NNW) 2,584 6.0 -10.9°
Maximum altitude 02:28:13 14° 274° (W) 1,445 4.1 -10.2°
Enters shadow 02:29:33 12° 251° (WSW) 1,556 4.1 -10.1°
